Theta_e
336 336 336 335 338 338 336 341 342 339 338 335 333 332 331 328 330 331 329 329 327 325 323 324 324 332 324 322 317 319 323 326
336 335 337 336 336 335 335 340 340 338 335 333 331 331 330 327 326 326 327 323 323 322 321 322 322 325 321 315 314 315 320 324
336 337 338 337 335 335 333 337 340 339 334 332 330 330 331 330 328 325 325 323 321 321 320 318 319 324 318 315 315 314 319 322
331 329 335 335 336 335 334 335 340 336 333 331 330 330 331 328 325 327 326 323 321 320 321 319 318 321 321 316 317 313 314 320
330 327 328 336 336 334 333 333 335 334 333 332 330 331 330 325 326 326 326 323 320 322 320 318 318 319 319 317 316 314 313 314
327 329 330 335 333 332 333 336 336 333 331 330 330 328 326 325 324 326 326 324 322 322 317 314 316 318 319 317 315 316 313 312
328 331 332 330 333 335 334 336 334 332 331 330 328 327 326 324 326 325 325 324 324 317 315 316 318 318 319 318 314 315 313 312
334 333 334 334 335 337 337 335 333 331 330 327 327 327 326 327 328 330 326 323 321 316 316 317 319 319 315 314 312 311 312 311
334 334 335 335 334 336 336 334 330 332 328 325 323 323 324 324 323 324 322 319 319 318 318 318 319 318 313 312 312 309 309 309
331 334 334 333 334 335 335 333 330 329 329 327 326 325 325 326 322 320 319 319 318 319 321 319 312 309 311 312 311 309 311 308
326 333 332 333 332 333 334 332 332 330 329 327 325 325 324 322 320 319 318 320 320 320 320 319 311 309 307 310 310 309 307 306
333 331 331 331 332 335 335 334 332 329 328 326 324 323 323 323 321 320 319 320 320 322 320 319 312 310 311 310 313 309 306 305
332 331 332 332 335 333 334 334 331 327 327 327 325 322 320 318 317 319 318 317 318 321 321 319 312 310 310 309 308 307 308 309
332 333 333 332 334 332 331 332 331 328 327 327 325 323 320 317 315 316 316 315 315 317 319 316 314 310 310 308 307 308 311 307
329 331 332 332 334 334 333 332 332 329 328 327 326 323 321 319 317 315 314 313 313 314 315 314 313 310 310 308 308 308 308 309
329 329 329 332 332 332 332 330 330 331 330 329 327 325 322 320 319 317 315 316 316 315 315 315 314 312 311 309 308 309 309 307
326 328 329 330 330 330 331 331 331 332 332 330 327 326 324 322 320 318 317 316 318 317 317 316 314 313 312 311 309 308 308 307
320 326 329 330 330 331 330 330 329 331 330 329 329 327 325 324 322 320 318 319 318 319 318 316 315 316 316 311 310 309 310 309
322 323 328 331 331 329 329 328 329 329 331 329 329 327 326 325 324 323 321 320 325 324 322 320 318 317 316 311 310 308 310 308
322 322 325 329 329 329 330 331 331 332 331 331 329 328 326 326 326 328 327 327 326 324 322 320 319 319 315 313 313 312 312 310
Wind_Speed
14 13 14 14 8 7 6 6 6 6 4 3 1 1 1 1 3 3 1 1 2 2 2 3 4 7 4 6 5 4 6 5
19 16 13 12 12 9 8 6 5 5 3 3 3 2 1 1 1 2 2 1 2 2 1 2 2 2 3 4 3 4 6 6
13 13 11 8 9 10 10 9 7 5 4 4 4 3 3 2 2 2 3 2 1 1 1 2 2 1 2 3 2 3 5 5
6 6 12 13 12 10 10 12 10 7 6 6 4 4 3 3 1 2 4 3 2 2 1 1 2 2 2 1 3 3 3 3
9 4 10 14 12 11 12 12 8 9 7 5 4 4 4 4 3 4 5 3 3 3 3 3 2 1 4 3 3 4 3 2
8 7 1 11 11 14 11 10 10 8 6 5 4 5 5 4 4 3 4 5 4 4 4 3 2 2 3 2 1 2 3 3
3 3 4 4 10 12 11 10 10 9 7 5 5 6 4 4 4 2 3 4 5 5 4 2 3 2 3 1 1 2 2 3
0 6 1 5 6 9 11 10 10 8 5 5 4 3 3 2 3 2 3 4 5 5 4 4 2 3 3 2 2 2 2 2
4 4 5 7 3 8 10 12 7 8 3 4 3 3 2 1 2 3 4 5 5 6 4 3 3 3 2 3 3 2 0 1
3 5 6 9 8 6 6 7 7 4 4 3 3 2 1 1 1 2 4 5 4 4 5 4 4 1 1 1 1 1 0 1
4 5 6 6 7 8 7 8 8 5 6 4 4 3 1 2 1 1 2 5 3 4 4 4 3 2 3 2 2 3 3 1
4 5 7 8 7 8 8 9 7 5 7 5 6 4 3 3 4 3 3 4 5 4 4 3 3 2 3 3 3 3 3 3
6 7 7 6 6 7 5 6 5 4 5 5 4 3 2 1 2 4 4 3 4 4 4 3 4 3 3 3 3 3 2 3
6 3 4 5 5 6 6 7 6 7 6 5 6 6 4 3 2 3 3 2 3 5 5 5 4 4 4 4 3 4 3 3
5 6 7 7 9 9 7 7 9 8 8 7 7 7 7 7 6 4 4 3 3 6 5 5 4 4 4 4 4 4 5 4
9 8 6 8 8 7 6 8 9 11 11 11 8 8 5 5 5 4 4 4 4 3 5 5 6 6 5 5 3 4 4 3
13 11 9 8 8 9 12 12 10 11 11 9 8 7 7 6 6 5 4 5 4 5 5 5 6 6 6 6 4 4 4 4
8 10 11 9 9 10 8 6 7 7 7 6 5 6 7 6 5 6 6 5 6 6 6 6 6 7 7 6 4 4 5 3
9 10 9 10 7 6 5 3 5 6 6 5 6 6 6 6 6 6 6 5 6 7 7 7 8 8 7 6 6 6 6 6
10 7 7 7 7 6 8 8 7 7 6 6 7 5 5 6 6 6 6 7 6 6 6 6 7 8 7 7 9 7 7 6
Wind_Direction
169 179 187 182 174 171 168 172 162 164 159 159 194 331 78 174 177 167 200 271 309 334 338 13 7 5 39 24 49 62 89 94
179 176 177 181 167 175 165 163 166 184 159 161 172 179 185 251 277 214 189 215 243 259 343 343 28 331 42 62 18 74 96 95
183 174 167 157 173 178 176 163 171 179 183 166 175 193 180 214 226 202 168 178 166 138 359 33 45 67 110 108 129 80 113 114
79 145 176 174 167 190 171 182 177 162 187 188 180 178 167 164 169 187 156 154 152 98 82 73 64 56 64 123 119 119 108 139
105 93 186 183 176 180 180 178 163 170 186 183 169 180 152 153 167 167 138 129 111 122 127 112 91 49 105 63 53 110 99 58
4 81 205 181 164 171 182 179 176 159 170 162 161 150 148 150 168 160 138 122 113 99 90 78 61 56 77 76 60 56 130 147
39 46 16 210 152 159 168 157 160 139 139 141 132 131 143 166 144 129 116 119 100 98 92 89 99 65 82 140 96 160 151 165
51 135 24 121 164 145 141 147 141 127 112 91 77 103 129 144 132 137 118 107 100 116 106 97 97 76 35 100 102 61 155 168
156 184 145 137 135 122 151 149 132 131 134 123 116 185 174 96 102 125 113 126 143 136 115 94 26 90 176 161 138 158 285 138
321 121 159 166 159 141 149 133 139 150 131 159 117 116 71 58 110 104 127 136 146 138 126 87 68 28 304 65 121 126 264 199
206 157 165 162 146 146 137 150 171 166 120 100 82 86 31 98 204 151 197 157 163 149 150 125 124 158 229 212 159 159 194 292
243 165 160 178 157 144 150 168 183 147 141 163 161 170 181 200 185 174 186 209 174 181 173 140 179 200 225 212 171 164 145 198
204 201 183 182 146 161 149 140 152 145 168 177 167 178 216 187 159 179 186 187 206 207 199 181 188 203 207 198 184 177 176 167
225 181 144 140 124 130 150 160 176 167 180 198 195 203 204 191 205 210 215 207 226 228 216 215 212 207 207 205 189 179 189 168
189 184 175 169 171 174 183 179 192 182 190 196 204 205 198 201 191 196 192 227 233 230 218 223 221 217 209 201 198 193 184 177
189 194 186 172 183 181 170 182 197 192 192 201 200 200 196 200 195 186 205 210 217 219 227 222 222 218 213 204 202 206 190 181
198 183 182 179 184 192 192 200 203 199 204 208 203 190 196 204 204 194 200 204 223 225 219 222 226 218 211 197 210 213 173 198
219 184 184 189 197 199 202 207 215 216 211 206 215 208 196 196 188 206 209 219 212 219 217 210 219 218 210 194 200 209 208 202
207 215 182 191 196 192 202 177 210 228 220 231 223 214 213 207 199 198 202 209 218 214 221 217 210 212 213 198 207 208 213 209
211 223 170 185 192 180 192 208 211 222 220 200 218 226 211 221 216 209 191 212 205 214 207 213 216 215 207 206 215 208 210 211